Starlink 2591

operational
NORAD ID: 48361 Int'l Des: 2021-038 Owner: SPXS Country: US Constellation: starlink
LEOCIRCULARSTARLINK_TYPE

About Starlink 2591

Description loading...

Live Position

Loading 3D Globe...

Upcoming Passes

Altitude History

Altitude vs Time

uPlot chart will show altitude changes over time

Two-Line Element Set

1 48361U 21038J 25296.30098270 .00018246 00000-0 12401-2 0 9990
2 48361 53.0529 258.3769 0001473 89.7719 270.3439 15.06417011246314
Epoch: Oct 23, 2025 • Age: 19 hours

Current Status

Altitude 564.8 km
Velocity 7.58 km/s
Sub-Earth Point -48.83°S, 133.02°E
Launch Date May 4, 2021
Age 4.4 years
Type internet

Technical Details

Classification Payload
Mass 260.00 kg
Dry Mass 248.00 kg
Total Mass 260.00 kg
Length 0.20 m
Diameter 2.80 m
Span 9.00 m
Shape Box + pan
Manufacturer SPXS
Bus Type Starlink
Phase Status In Orbit
Owner/State SPXS/US

Large Constellations

Loading constellations...